Weather in Trosna

Russia / Oryol Oblast     52°26′54″N   35°46′44″E
temp.,
°C
wind,
m/s
gust,
m/s
humid.,
%
clouds,
%
prec.,
mm/h
press.,
hPa
HPBL,
m
20 april, tue
tue2000:00+6ene499593 0.1 1016475
03:00+6ene4895100 0.3 1015350
06:00+6e51095100 0.8 1014423
09:00+7e61093100 1.9 1013686
12:00+8e61086100 0.1 1012805
15:00+7ene61089100 0.2 1010619
18:00+6ene61092100 0.1 1008635
21:00+5ne61096100 1.3 1006550
21 april, wed
wed2100:00+4nne5695100 1.3 1004669
03:00+3nnw3698100 2.5 1004501
06:00+3wnw3798100 0.1 1005606
09:00+3w4795100 0.1 1007557
12:00+7wsw6778100 0.1 1008950
15:00+7wsw5782100 0.1 1010924
18:00+7sw468362 0.1 1012741
21:00+5sw368985 0.3 1013235
22 april, thu
thu2200:00+4ssw339338 0.1 101457
03:00+3ssw34945 0.1 101563
06:00+2sw359548 0.0 101687
09:00+7ssw35795 0.0 1017429
12:00+11ssw455912 0.0 10171367
15:00+14ssw555450 0.1 10161757
18:00+12ssw567318 0.1 1017821
21:00+8sse369112 0.1 1018113
23 april, fri
fri2300:00+8s4109214 0.0 1017211
03:00+7s4119362 0.1 1017219
06:00+7s5119198 0.1 1017262
09:00+12ssw6127466 0.3 1017513
12:00+16s811515 0.0 10161551
15:00+16ssw8115519 0.1 10142069
18:00+14ssw7126189 0.8 10131024
21:00+10sw51183100 1.9 1014410
24 april, sat
sat2400:00+8w3594100 0.9 1012311
03:00+5wnw5693100 1.5 1012663
06:00+2wnw4899100 4.0 1013359
09:00+4wsw3797100 5.8 1012647
12:00+8wsw666218 0.6 10111422
15:00+7w7867100 1.6 10101258
18:00+5wnw71079100 1.3 1012987
21:00+3w5118165 1.3 1013565